Atwater, CA

12:50 PM PST on December 12, 2017 (GMT -0800)
Castle

Weather History for KMER - January, 2013

Change the Weather History Date:

Saturday, January 19, 2013

  Actual Average (KMCE) Record (KMCE)
Temperature  
Mean Temperature 46 °F -  
Max Temperature 62 °F 55 °F 71 °F (2009)
Min Temperature 30 °F 36 °F 25 °F (2007)
Degree Days  
Heating Degree Days 19    
Moisture  
Dew Point 37 °F    
Average Humidity 92    
Maximum Humidity 100    
Minimum Humidity 48    
Precipitation  
Precipitation 0.00 in - - ()
Sea Level Pressure  
Sea Level Pressure 30.22 in    
Wind  
Wind Speed 0 mph (North)    
Max Wind Speed 4 mph    
Max Gust Speed -    
Visibility 5 miles    
Events      
Averages and records for this station are not official NWS values.
T = Trace of Precipitation, MM = Missing Value Source: NWS Daily Summary

Daily Weather History Graph

Daily Weather History Graph

Search for Another Location

Airport or City:

Trip Planner

Search our weather history database for the weather conditions in past years. The results will help you decide how hot, cold, wet, or windy it might be!

Date:

Astronomy

Jan. 19, 2013 Rise Set
Actual Time 7:13 AM PST 5:12 PM PST
Civil Twilight 6:45 AM PST 5:41 PM PST
Nautical Twilight 6:13 AM PST 6:13 PM PST
Astronomical Twilight 5:42 AM PST 6:44 PM PST
Moon 11:40 AM PST (1/19) 12:54 AM PST (1/19)
Length of Visible Light 10h 55m
Length of Day
9h 59m
First Quarter, 58% of the Moon is Illuminated
Jan 19
First Quarter
Jan 26
Full
Feb 3
Last Quarter
Feb 9
New
Feb 17
First Quarter

Hourly Weather History & Observations

Time (PST) Temp. Dew Point Humidity Pressure Visibility Wind Dir Wind Speed Gust Speed Precip Events Conditions
12:15 AM 33.8 °F 33.8 °F 100% 30.20 in 3.0 mi Calm Calm - N/A   Clear
12:35 AM 32.0 °F 32.0 °F 100% 30.20 in 4.0 mi Calm Calm - N/A   Clear
12:55 AM 32.0 °F 32.0 °F 100% 30.20 in 4.0 mi Calm Calm - N/A   Clear
1:15 AM 32.0 °F 32.0 °F 100% 30.21 in 3.0 mi Calm Calm - N/A   Clear
1:35 AM 33.8 °F 33.8 °F 100% 30.21 in 3.0 mi Calm Calm - N/A   Clear
1:55 AM 32.0 °F 32.0 °F 100% 30.21 in 3.0 mi Calm Calm - N/A   Clear
2:15 AM 32.0 °F 32.0 °F 100% 30.21 in 3.0 mi Calm Calm - N/A   Clear
2:35 AM 32.0 °F 32.0 °F 100% 30.22 in 5.0 mi Calm Calm - N/A   Clear
2:55 AM 33.8 °F 33.8 °F 100% 30.21 in 3.0 mi Calm Calm - N/A   Clear
3:15 AM 32.0 °F 32.0 °F 100% 30.21 in 2.5 mi Calm Calm - N/A   Clear
3:35 AM 32.0 °F 32.0 °F 100% 30.21 in 4.0 mi Calm Calm - N/A   Clear
3:55 AM 32.0 °F 32.0 °F 100% 30.22 in 4.0 mi Calm Calm - N/A   Clear
5:15 AM 32.0 °F 32.0 °F 100% 30.22 in 4.0 mi Calm Calm - N/A   Clear
5:55 AM 32.0 °F 32.0 °F 100% 30.23 in 2.5 mi Calm Calm - N/A   Clear
6:45 AM 30.2 °F 30.2 °F 100% 30.24 in 3.0 mi Calm Calm - N/A   Clear
7:50 AM 32.0 °F 32.0 °F 100% 30.25 in 3.0 mi Calm Calm - N/A   Clear
8:45 AM 35.6 °F 35.6 °F 100% 30.27 in 4.0 mi Calm Calm - N/A   Clear
9:50 AM 44.6 °F 44.6 °F 100% 30.29 in 4.0 mi Calm Calm - N/A   Clear
10:45 AM 51.8 °F 44.6 °F 76% 30.28 in 4.0 mi Calm Calm - N/A   Clear
11:45 AM 55.4 °F 44.6 °F 67% 30.25 in 4.0 mi Calm Calm - N/A   Clear
12:50 PM 60.8 °F 44.6 °F 55% 30.22 in 4.0 mi Calm Calm - N/A   Clear
1:50 PM 60.8 °F 42.8 °F 52% 30.20 in 5.0 mi Calm Calm - N/A   Haze
2:45 PM 62.6 °F 42.8 °F 48% 30.19 in 5.0 mi Variable 3.5 mph - N/A   Haze
3:45 PM 62.6 °F 42.8 °F 48% 30.19 in 5.0 mi Calm Calm - N/A   Haze
4:45 PM 59.0 °F 42.8 °F 55% 30.19 in 5.0 mi Calm Calm - N/A   Haze
5:45 PM 51.8 °F 41.0 °F 67% 30.19 in 5.0 mi Calm Calm - N/A   Haze
6:45 PM 44.6 °F 42.8 °F 93% 30.19 in 7.0 mi Calm Calm - N/A   Clear
7:45 PM 41.0 °F 41.0 °F 100% 30.21 in 7.0 mi Calm Calm - N/A   Clear
8:15 PM 39.2 °F 39.2 °F 100% 30.22 in 7.0 mi Calm Calm - N/A   Clear
8:35 PM 37.4 °F 37.4 °F 100% 30.22 in 6.0 mi Calm Calm - N/A   Clear
8:45 PM 37.4 °F 37.4 °F 100% 30.22 in 7.0 mi Calm Calm - N/A   Clear
8:55 PM 37.4 °F 37.4 °F 100% 30.23 in 5.0 mi Calm Calm - N/A   Clear
9:15 PM 37.4 °F 37.4 °F 100% 30.23 in 7.0 mi Calm Calm - N/A   Clear
9:35 PM 35.6 °F 35.6 °F 100% 30.23 in 7.0 mi Calm Calm - N/A   Clear
9:55 PM 37.4 °F 37.4 °F 100% 30.24 in 7.0 mi Calm Calm - N/A   Clear
10:15 PM 37.4 °F 37.4 °F 100% 30.24 in 7.0 mi Calm Calm - N/A   Clear
10:35 PM 35.6 °F 35.6 °F 100% 30.25 in 7.0 mi Calm Calm - N/A   Clear
10:55 PM 35.6 °F 35.6 °F 100% 30.25 in 6.0 mi Calm Calm - N/A   Clear
11:15 PM 35.6 °F 35.6 °F 100% 30.25 in 9.0 mi Calm Calm - N/A   Clear
11:35 PM 35.6 °F 35.6 °F 100% 30.25 in 5.0 mi Calm Calm - N/A   Clear
11:55 PM 35.6 °F 35.6 °F 100% 30.25 in 5.0 mi Calm Calm - N/A   Clear